Regional Weather Roundup
Issued by NWS

Home | Current Version | Previous Version | Text Only | Print | Product List | Glossary On
Versions: 1 2 3 4 5 6 7 8 9 10 11 12 13 14 15 16 17 18 19 20 21 22 23 24 25 26 27 28 29 30 31 32 33 34 35 36 37 38 39 40 41 42 43 44 45 46 47 48 49 50
000
ASUS43 KDTX 200101
RWRMI
MICHIGAN HOURLY REGIONAL WEATHER ROUNDUP
NATIONAL WEATHER SERVICE DETROIT/PONTIAC MI
900 PM EDT SAT APR 19 2014

NOTE: "FAIR" INDICATES FEW OR NO CLOUDS BELOW 12,000 FEET WITH NO
SIGNIFICANT WEATHER AND/OR OBSTRUCTION TO VISIBILITY.

MIZ047>049-052>055-059>063-066>070-074>076-081>083-200200-
SOUTHEAST LOWER MICHIGAN

CITY           SKY/WX    TMP DP  RH WIND       PRES   REMARKS
ADRIAN         CLEAR     45  30  55 SE9       30.36R
ALMA           MOCLDY    45  35  68 NE7       30.32R
ANN ARBOR      CLEAR     45  30  55 SE9       30.36R
BAD AXE        CLEAR     38  30  72 CALM      30.35S
CARO           PTCLDY    47  28  47 E3        30.34R
DETROIT CITY   CLEAR     48  29  47 SE9       30.37R
DETROIT        PTCLDY    44  31  60 S8        30.38R
FLINT          CLEAR     47  25  42 SE6       30.33R
GROSSE ILE     CLEAR     43  27  52 SE3       30.36R
HILLSDALE      PTCLDY    47  28  47 SE7       30.34R
HOWELL         CLEAR     48  26  42 SE6       30.32S

CITY           SKY/WX    TMP DP  RH WIND       PRES   REMARKS
JACKSON        CLEAR     48  29  47 SE10      30.33R
LAMBERTVILLE   CLEAR     45  32  61 CALM      30.37R
LANSING        PTCLDY    53  24  32 SE9       30.32R
LAPEER         FAIR      46  33  59 E5        30.34R
MASON          PTCLDY    49  28  43 SE6       30.32R
MONROE         CLEAR     43  34  70 E3        30.36R
MT. CLEMENS    CLEAR     40  30  67 S8        30.36R WCI  35
PONTIAC        PTCLDY    50  30  46 SE13      30.34R
PORT HOPE        N/A     37  29  72 E5        30.35S WCI  33
PORT HURON     CLEAR     37  32  81 CALM      30.38R
TRI CITIES     PTCLDY    42  35  76 N9        30.34S
TROY           CLEAR     49  30  47 SE3       30.37R
SAGINAW HB     PTCLDY    48  30  49 E6        30.33S
YPSILANTI      CLEAR     46  30  53 S12       30.37R
$$
MIZ043>046-050>051-056>058-064>065-071>073-077>080-200200-
SOUTHWEST LOWER MICHIGAN

CITY           SKY/WX    TMP DP  RH WIND       PRES   REMARKS
BATTLE CREEK   PTCLDY    54  31  41 SE13      30.31R
BENTON HARBOR  MOCLDY    55  33  43 SE5       30.27R
BIG RAPIDS     MOCLDY    50  33  51 SE8       30.29R
COLDWATER      PTCLDY    49  26  41 SE7       30.32R
FREMONT        FAIR      54  26  34 E3        30.27R
HOLLAND        MOCLDY    57  31  37 SE5       30.27R
GRAND RAPIDS   MOCLDY    53  30  41 SE8       30.28S
IONIA          FAIR      51  29  43 SE6       30.29S
KALAMAZOO      PTCLDY    55  30  38 SE9       30.30R
LUDINGTON      PTCLDY    42  33  70 N3        30.26S
MARSHALL       PTCLDY    50  30  46 SE7       30.31R
MOUNT PLEASANT MOCLDY    46  33  60 NE6       30.31S
MUSKEGON       CLOUDY    56  29  35 E3        30.27R
SOUTH HAVEN    PTCLDY    57  28  32 SE3       30.27R
$$
MIZ016>042-200200-
NORTHERN LOWER MICHIGAN

CITY           SKY/WX    TMP DP  RH WIND       PRES   REMARKS
ALPENA         PTCLDY    34  27  75 SE6       30.38S WCI  29
BEAVER ISLAND  MOCLDY    37  29  73 E6        30.26S WCI  33
BELLAIRE       PTCLDY    51  23  33 SE10      30.27F
CADILLAC       CLEAR     46  34  62 SE10      30.27S
CHARLEVOIX     MOCLDY    52  25  34 SE8       30.29S
FRANKFORT      MOCLDY    42  30  62 CALM      30.26S
GAYLORD        PTCLDY    44  21  40 SE13      30.30S
GRAYLING       PTCLDY    42  24  50 E7        30.33R
HARBOR SPRINGS PTCLDY    51  26  37 SE8       30.27R
HOUGHTON LAKE  CLEAR     44  29  55 SE6       30.32S
MANISTEE       PTCLDY    43  28  56 CALM      30.27S
OSCODA         CLEAR     36  29  75 NE3       30.38S
PELLSTON       PTCLDY    45  26  47 SE12      30.28F
ROGERS CITY    PTCLDY    37  26  64 SE10G16   30.36F WCI  30
TRAVERSE CITY  MOCLDY    52  28  39 SE8G17    30.26S
$$
MIZ007>008-015-200200-
EASTERN UPPER MICHIGAN

CITY           SKY/WX    TMP DP  RH WIND       PRES   REMARKS
KINROSS        PTCLDY    36  25  64 SE17      30.30S WCI  25
MACKINAC ISLAN PTCLDY    37  28  71 E10G17    30.29R WCI  29
NEWBERRY       MOCLDY    37  24  60 SE14      30.24S WCI  28
S. S. MARIE    PTCLDY    37  25  61 SE10      30.31S WCI  30
$$
MIZ004>006-011>014-085-200200-
CENTRAL UPPER MICHIGAN

CITY           SKY/WX    TMP DP  RH WIND       PRES   REMARKS
MANISTIQUE     MOCLDY    36  29  78 SE9       30.25S WCI  29
ESCANABA       MOCLDY    37  30  75 SE8       30.22S WCI  31
MENOMINEE      MOCLDY    45  32  61 S9        30.20F
SAWYER-GWINN   LGT RAIN  41  28  60 S16G24      N/A
$$
MIZ001>003-009>011-084-200200-
WESTERN UPPER MICHIGAN

CITY           SKY/WX    TMP DP  RH WIND       PRES   REMARKS
IRON MOUNTAIN  CLOUDY    46  29  51 S8        30.16S
HOUGHTON       CLOUDY    38  32  79 SE7       30.07F WCI  33
COPPER HARBOR    N/A     39  30  70 SW13G23   30.08S WCI  31
IRONWOOD       CLOUDY    50  37  62 S14G25    29.99F
$$

ABBREVIATIONS USED IN REMARKS
   TC - TEMPERATURE IN CELSIUS
  WCI - WIND CHILL INDEX
   HX - HEAT INDEX
  VSB - VISIBILITY




USA.gov is the U.S. government's official web portal to all federal, state and local government web resources and services.